{"data":{"norad_id":60055,"intl_designator":"2024-112T","name":"STARLINK-31788","alt_names":[],"object_type":"PAYLOAD","status":"ACTIVE","operator":null,"country":"US","launch_date":"2024-06-08","launch_site_code":"AFWTR","launch_vehicle":null,"mission":null,"orbit_class":"UNKNOWN","rcs_meters":null,"size_class":null,"mass_kg":null,"dimensions":null,"purposes":["comms"],"wikipedia_slug":null,"has_3d_model":false,"image_url":null,"decayed_at":null,"tle_current":{"epoch":"2026-09-21T22:45:37.817568Z","epoch_age_seconds":53101,"freshness":"FRESH","line1":"1 60055U 24112T   26264.94835437  .00002590  00000+0  87818-4 0  9990","line2":"2 60055  53.1593 245.0495 0001299  77.2971 282.8176 15.34378954128663","mean_motion":15.34378954,"eccentricity":0.0001299,"inclination_deg":53.1593,"raan_deg":245.0495,"arg_perigee_deg":77.2971,"mean_anomaly_deg":282.8176,"bstar":8.7818e-5,"rev_number":12866,"period_min":93.84904532521401,"perigee_km":461.8771607964,"apogee_km":463.65442734229,"semimajor_km":6840.9027940693,"source":"CELESTRAK","updated_at":"2026-09-22T09:00:49.145115Z"}}}